Meteo pe oră la Abapo

Astăzi, 3 August, Marţi

Timp Temperatura Precipitaţii Vânt Presiune Umiditate
00:00 +14°C° 0 mm 1 m/s 718 mmHg 46%
01:00 +14°C° 0 mm 1 m/s 717 mmHg 48%
02:00 +13°C° 0 mm 1 m/s 717 mmHg 49%
03:00 +13°C° 0 mm 1 m/s 717 mmHg 50%
04:00 +13°C° 0 mm 1 m/s 717 mmHg 52%
05:00 +12°C° 0 mm 1 m/s 717 mmHg 53%
06:00 +14°C° 0 mm 1 m/s 717 mmHg 49%
07:00 +15°C° 0 mm 1 m/s 718 mmHg 45%
08:00 +16°C° 0 mm 1 m/s 718 mmHg 41%
09:00 +20°C° 0 mm 1 m/s 718 mmHg 36%
10:00 +23°C° 0 mm 1 m/s 719 mmHg 30%
11:00 +26°C° 0 mm 1 m/s 719 mmHg 25%
12:00 +27°C° 0 mm 1 m/s 718 mmHg 24%
13:00 +28°C° 0 mm 2 m/s 717 mmHg 23%
14:00 +29°C° 0 mm 2 m/s 716 mmHg 22%
15:00 +28°C° 0 mm 2 m/s 716 mmHg 22%
16:00 +28°C° 0 mm 2 m/s 715 mmHg 23%
17:00 +27°C° 0 mm 2 m/s 715 mmHg 24%
18:00 +25°C° 0 mm 2 m/s 715 mmHg 30%
19:00 +22°C° 0 mm 1 m/s 716 mmHg 35%
20:00 +20°C° 0 mm 1 m/s 716 mmHg 40%
21:00 +19°C° 0 mm 1 m/s 717 mmHg 42%
22:00 +18°C° 0 mm 1 m/s 717 mmHg 44%
23:00 +17°C° 0 mm 2 m/s 718 mmHg 46%

Mâine, 4 August, Miercuri

Timp Temperatura Precipitaţii Vânt Presiune Umiditate
00:00 +16°C° 0 mm 1 m/s 717 mmHg 47%
01:00 +16°C° 0 mm 1 m/s 717 mmHg 49%
02:00 +15°C° 0 mm 1 m/s 717 mmHg 51%
03:00 +15°C° 0 mm 1 m/s 717 mmHg 50%
04:00 +15°C° 0 mm 1 m/s 717 mmHg 50%
05:00 +15°C° 0 mm 1 m/s 717 mmHg 50%
06:00 +16°C° 0 mm 1 m/s 717 mmHg 47%
07:00 +18°C° 0 mm 1 m/s 717 mmHg 44%
08:00 +19°C° 0 mm 1 m/s 718 mmHg 42%
09:00 +22°C° 0 mm 1 m/s 718 mmHg 36%
10:00 +24°C° 0 mm 1 m/s 718 mmHg 30%
11:00 +27°C° 0 mm 1 m/s 719 mmHg 24%
12:00 +28°C° 0 mm 2 m/s 718 mmHg 23%
13:00 +28°C° 0 mm 2 m/s 717 mmHg 22%
14:00 +29°C° 0 mm 2 m/s 716 mmHg 21%
15:00 +29°C° 0 mm 2 m/s 716 mmHg 21%
16:00 +28°C° 0 mm 2 m/s 715 mmHg 22%
17:00 +27°C° 0 mm 2 m/s 715 mmHg 23%
18:00 +25°C° 0 mm 2 m/s 716 mmHg 26%
19:00 +23°C° 0 mm 1 m/s 716 mmHg 30%
20:00 +21°C° 0 mm 1 m/s 716 mmHg 33%
21:00 +20°C° 0 mm 1 m/s 717 mmHg 34%
22:00 +20°C° 0 mm 1 m/s 717 mmHg 36%
23:00 +20°C° 0 mm 1 m/s 717 mmHg 37%

Poimâine, 5 August, Joi

Timp Temperatura Precipitaţii Vânt Presiune Umiditate
00:00 +19°C° 0 mm 1 m/s 716 mmHg 38%
01:00 +18°C° 0 mm 1 m/s 716 mmHg 40%
02:00 +16°C° 0 mm 1 m/s 716 mmHg 42%
03:00 +16°C° 0 mm 1 m/s 715 mmHg 43%
04:00 +16°C° 0 mm 1 m/s 715 mmHg 44%
05:00 +16°C° 0 mm 1 m/s 715 mmHg 44%
06:00 +18°C° 0 mm 1 m/s 716 mmHg 42%
07:00 +19°C° 0 mm 1 m/s 716 mmHg 39%
08:00 +20°C° 0 mm 1 m/s 717 mmHg 37%
09:00 +23°C° 0 mm 1 m/s 717 mmHg 31%
10:00 +26°C° 0 mm 1 m/s 716 mmHg 25%
11:00 +29°C° 0 mm 2 m/s 716 mmHg 19%
12:00 +30°C° 0 mm 2 m/s 715 mmHg 18%
13:00 +31°C° 0 mm 3 m/s 714 mmHg 17%
14:00 +33°C° 0 mm 4 m/s 713 mmHg 17%
15:00 +33°C° 0 mm 4 m/s 712 mmHg 17%
16:00 +33°C° 0 mm 4 m/s 712 mmHg 18%
17:00 +33°C° 0 mm 4 m/s 711 mmHg 18%
18:00 +28°C° 0 mm 3 m/s 712 mmHg 24%
19:00 +25°C° 0 mm 2 m/s 712 mmHg 30%
20:00 +22°C° 0 mm 1 m/s 713 mmHg 35%
21:00 +21°C° 0 mm 1 m/s 713 mmHg 38%
22:00 +20°C° 0 mm 1 m/s 714 mmHg 41%
23:00 +19°C° 0 mm 1 m/s 714 mmHg 43%

6 August, Vineri

Timp Temperatura Precipitaţii Vânt Presiune Umiditate
00:00 +18°C° 0 mm 1 m/s 714 mmHg 45%
01:00 +18°C° 0 mm 1 m/s 714 mmHg 46%
02:00 +16°C° 0 mm 1 m/s 713 mmHg 47%
03:00 +16°C° 0 mm 1 m/s 713 mmHg 49%
04:00 +15°C° 0 mm 1 m/s 713 mmHg 50%
05:00 +15°C° 0 mm 1 m/s 713 mmHg 51%
06:00 +18°C° 0 mm 1 m/s 714 mmHg 47%
07:00 +19°C° 0 mm 1 m/s 714 mmHg 43%
08:00 +20°C° 0 mm 1 m/s 715 mmHg 39%
09:00 +24°C° 0 mm 1 m/s 715 mmHg 33%
10:00 +28°C° 0 mm 1 m/s 715 mmHg 27%
11:00 +32°C° 0 mm 1 m/s 715 mmHg 20%
12:00 +34°C° 0 mm 2 m/s 713 mmHg 19%
13:00 +35°C° 0 mm 3 m/s 712 mmHg 18%
14:00 +37°C° 0 mm 3 m/s 711 mmHg 17%
15:00 +36°C° 0 mm 4 m/s 710 mmHg 18%
16:00 +36°C° 0 mm 4 m/s 710 mmHg 18%
17:00 +36°C° 0 mm 5 m/s 709 mmHg 19%
18:00 +33°C° 0 mm 4 m/s 710 mmHg 23%
19:00 +30°C° 0 mm 4 m/s 710 mmHg 27%
20:00 +28°C° 0 mm 3 m/s 710 mmHg 31%
21:00 +26°C° 0 mm 2 m/s 710 mmHg 35%
22:00 +24°C° 0 mm 2 m/s 711 mmHg 40%
23:00 +22°C° 0 mm 1 m/s 711 mmHg 44%

7 August, Sâmbătă

Timp Temperatura Precipitaţii Vânt Presiune Umiditate
00:00 +22°C° 0 mm 1 m/s 710 mmHg 46%
01:00 +21°C° 0 mm 1 m/s 710 mmHg 49%
02:00 +20°C° 0 mm 1 m/s 709 mmHg 52%
03:00 +19°C° 0 mm 1 m/s 709 mmHg 53%
04:00 +19°C° 0 mm 1 m/s 709 mmHg 54%
05:00 +18°C° 0 mm 1 m/s 709 mmHg 56%
06:00 +20°C° 0 mm 1 m/s 709 mmHg 51%
07:00 +22°C° 0 mm 1 m/s 709 mmHg 46%
08:00 +23°C° 0 mm 1 m/s 710 mmHg 42%
09:00 +27°C° 0 mm 1 m/s 710 mmHg 34%
10:00 +32°C° 0 mm 2 m/s 710 mmHg 27%
11:00 +37°C° 0 mm 3 m/s 710 mmHg 19%
12:00 +38°C° 0 mm 3 m/s 709 mmHg 17%
13:00 +41°C° 0 mm 4 m/s 708 mmHg 15%
14:00 +42°C° 0 mm 5 m/s 706 mmHg 13%
15:00 +41°C° 0 mm 5 m/s 706 mmHg 15%
16:00 +40°C° 0 mm 6 m/s 706 mmHg 16%
17:00 +39°C° 0 mm 6 m/s 705 mmHg 18%
18:00 +36°C° 0 mm 5 m/s 706 mmHg 21%
19:00 +34°C° 0 mm 5 m/s 706 mmHg 25%
20:00 +30°C° 0 mm 4 m/s 707 mmHg 29%
21:00 +29°C° 0 mm 4 m/s 707 mmHg 32%
22:00 +28°C° 0 mm 3 m/s 708 mmHg 34%
23:00 +27°C° 0 mm 3 m/s 708 mmHg 37%

8 August, Duminică

Timp Temperatura Precipitaţii Vânt Presiune Umiditate
00:00 +25°C° 0 mm 2 m/s 708 mmHg 40%
01:00 +24°C° 0 mm 2 m/s 708 mmHg 42%
02:00 +23°C° 0 mm 2 m/s 708 mmHg 45%
03:00 +21°C° 0 mm 2 m/s 708 mmHg 47%
04:00 +21°C° 0 mm 2 m/s 708 mmHg 49%
05:00 +21°C° 0 mm 1 m/s 708 mmHg 52%
06:00 +22°C° 0 mm 1 m/s 709 mmHg 48%
07:00 +23°C° 0 mm 1 m/s 709 mmHg 45%
08:00 +25°C° 0 mm 1 m/s 710 mmHg 41%
09:00 +29°C° 0 mm 1 m/s 711 mmHg 34%
10:00 +33°C° 0 mm 1 m/s 711 mmHg 27%
11:00 +37°C° 0 mm 1 m/s 712 mmHg 20%
12:00 +39°C° 0 mm 2 m/s 711 mmHg 18%
13:00 +40°C° 0 mm 2 m/s 709 mmHg 17%
14:00 +42°C° 0 mm 3 m/s 708 mmHg 15%
15:00 +41°C° 0 mm 4 m/s 708 mmHg 16%
16:00 +40°C° 0 mm 5 m/s 708 mmHg 17%
17:00 +39°C° 0 mm 6 m/s 707 mmHg 18%
18:00 +36°C° 0 mm 5 m/s 708 mmHg 22%
19:00 +34°C° 0 mm 4 m/s 709 mmHg 25%
20:00 +31°C° 0 mm 3 m/s 709 mmHg 28%
21:00 +30°C° 0 mm 3 m/s 709 mmHg 31%
22:00 +29°C° 0 mm 3 m/s 709 mmHg 33%
23:00 +28°C° 0 mm 2 m/s 709 mmHg 36%
Arată mai mult

Formular de consimțământ

Meteoprog și furnizorii noștri de servicii pot stoca și accesa date personale, precum cookies, identificatori de dispozitiv sau alte tehnologii similare pe dispozitivul dumneavoastră și procesa astfel de date pentru a personaliza conținutul și reclamele, dar și pentru a oferi caracteristici de social media și pentru a analiza traficul.

  • Stocarea și/sau accesarea informațiilor pe dispozitivul dumneavoastră

    Cookies, identificatori de dispozitiv sau alte informații pot fi stocate sau accesate pe dispozitiv în scopurile indicate mai sus.

  • Reclame și conținut personalizat, evaluarea reclamelor și a conținutului, informații despre audiențe și dezvoltarea produselor

    Reclamele și conținutul pot fi personalizate pe baza unui profil. Pot fi adăugate date suplimentare pentru a personaliza mai bine reclamele și conținutul. Performanța reclamelor și conținutului poate fi măsurată. Pot fi obținute informații despre utilizatorii care au văzut reclamele și conținutul. Aceste date pot fi utilizate pentru a dezvolta sau îmbunătăți experiența utilizatorilor, sistemele și software-ul.

Dând clic pe ‘Sunt de acord’, permiteți utilizarea cookie-urilor menționate, a identificatorilor de dispozitiv, balizelor web sau altor tehnologii similare. Setările pot fi modificate din browser-ul dispozitivului dumneavoastră.

În anumite scopuri, interesele legitime pot prima asupra consimțământului. Puteți citi mai multe informații în acest sens în Politica privind Confidențialitatea Datelor și Cookie.